Flock 4g-30

operational
NORAD ID: 62679 Int'l Des: 2025-009 Owner: PLAN Country: US Constellation: planet
LEOCIRCULARRETROGRADESSO

关于 Flock 4g-30

正在加载描述...

实时位置

正在加载3D地球...

即将过境

高度历史

Altitude vs Time

uPlot chart will show altitude changes over time

两行轨道根数

1 62679U 25009BY 25340.91692965 .00014533 00000-0 59194-3 0 9994
2 62679 97.4119 58.6931 0003830 302.9585 57.1284 15.24578838107197
Epoch: Dec 6, 2025 • Age: 9 hours

当前状态

高度 494.4 km
速度 7.62 km/s
星下点 -5.62°S, 128.01°W
发射日期 Jan 14, 2025
运行时间 0.8 years
类型 earth observation

技术详情

分类 Payload
质量 5.70 kg
干质量 5.70 kg
总质量 5.70 kg
长度 0.30 m
直径 0.10 m
跨度 0.30 m
形状 Box+2 pan
制造商 PLAN
平台类型 Cubesat 3U
阶段状态 In Orbit
所有者/国家 PLAN/US

大型星座

Loading constellations...